Location: Castellare
(42.4669°N, 9.4728°E)
Time: 15:44:38
(UTC+00:00)

Cosmos 1633 - Pass Details

Date: 17 February 2020
Orbit: 463 x 482 km, 82.5° (Epoch: 08 April)

Event Time Altitude Azimuth Distance (km) Brightness Sun altitude
Rises 05:30:20 0° 344° (NNW) 2,556 6.0 -9.2°
Reaches altitude 10° 05:32:31 10° 337° (NNW) 1,672 5.0 -8.8°
Maximum altitude 05:35:57 39° 267° (W) 739 3.0 -8.2°
Drops below altitude 10° 05:39:21 10° 198° (SSW) 1,658 5.2 -7.6°
Sets 05:41:31 0° 190° (S) 2,531 6.2 -7.2°
